Regional Weather Roundup
Issued by NWS Bismarck, ND

Home | Current Version | Previous Version | Text Only | Print | Product List | Glossary On
Versions: 1 2 3 4 5 6 7 8 9 10 11 12 13 14 15 16 17 18 19 20 21 22 23 24 25 26 27 28 29 30 31 32 33 34 35 36 37 38 39 40 41 42 43 44 45 46 47 48 49 50
000
ASUS43 KBIS 240902
RWRBIS

NWR BROADCAST TEXT
NATIONAL WEATHER SERVICE BISMARCK ND
400 AM CDT SAT JUN 24 2017

NOTE: "FAIR" INDICATES FEW OR NO CLOUDS BELOW 12,000 FEET WITH NO
SIGNIFICANT WEATHER AND/OR OBSTRUCTIONS TO VISIBILITY.


CITY           SKY/WX    TMP DP  RH WIND       PRES   REMARKS
WILLISTON      CLEAR     48  35  60 NW13      30.19R
MINOT          CLEAR     46  41  82 W12       30.09S
MINOT AFB      CLEAR     44  41  89 NW12      30.09R
BISMARCK       CLOUDY    50  41  71 NW8       30.11S
DICKINSON      CLOUDY    47  33  58 NW9       30.16R
GARRISON         N/A     47  41  80 NW14      30.10S
HETTINGER ARPT PTCLDY    40  31  70 W8        30.18F
JAMESTOWN      CLOUDY    50  40  68 NW15G25   30.04R
HAZEN          CLOUDY    50  41  71 NW8       30.14S
LINTON           N/A    N/A N/A N/A W5        30.12R
MANDAN         FAIR      45  41  87 N8        30.12S
STANLEY        FAIR      43  43 100 NW6       30.15S
WATFORD CITY   FAIR      46  37  71 W8        30.17S
$$

CITY           SKY/WX    TMP DP  RH WIND       PRES   REMARKS
GRAND FORKS    MOCLDY    50  43  77 W10       29.96S
GRAND FORKS AF PTCLDY    47  41  79 NW7       29.96F
DEVILS LAKE    CLOUDY    49  41  74 NW15      30.01S
FARGO          CLEAR     46  39  76 W9        30.00R
CAVALIER       PTSUNNY   52  43  71 NW13      29.95S
GRAFTON        PTSUNNY   52  43  71 NW14      29.97S
LANGDON        CLOUDY    48  46  93 NW13      29.98S
ROLLA            N/A     46  43  87 NW22G30   30.02S
$$

CITY           SKY/WX    TMP DP  RH WIND       PRES   REMARKS
ABERDEEN       CLEAR     40  38  93 SW5       30.07F
MOBRIDGE       CLEAR     45  38  76 NW3       30.09S
BUFFALO          N/A     45  30  55 W8        30.16S
RAPID CITY     CLEAR     48  29  47 NW10      30.25S
GLASGOW        MOCLDY    49  34  56 NE9       30.23R
SIDNEY         MOCLDY    47  36  65 NW7       30.21R
WOLF POINT     CLEAR     47  36  65 CALM      30.24R
GLENDIVE       CLEAR     46  32  58 N10       30.22R
MILES CITY     PTCLDY    46  28  49 NW9       30.24R
BAKER          CLEAR     45  29  53 CALM      30.22S
$$

CITY           SKY/WX    TMP DP  RH WIND       PRES   REMARKS
BILLINGS       LGT RAIN  59  41  51 N6        30.29S
GREAT FALLS    CLOUDY    52  41  66 SW6       30.32R
$$




USA.gov is the U.S. government's official web portal to all federal, state and local government web resources and services.